Flag for China Weather past 2 weeks in Suzhou, Jiangsu, China

Now
73 °F

Passing clouds.


Feels Like: 74 °F
Forecast: 67 / 80 °F
Wind: 8 mph from East

Location: Shanghai Hongqiao Airport

Current Time: Sep 20, 2014 at 10:04:48 PM

Latest Report: Sep 20, 2014 at 9:30 PM


Visibility: N/A

Pressure: 29.89 "Hg

Humidity: 78%

Dew point: 66 °F

Location of SuzhouLocation

Historic Weather in Suzhou — Graph

°F

Suzhou temperature yesterday

Maximum temperature yesterday: 68 °F (at 12:00 AM)
Minimum temperature yesterday: 64 °F (at 8:30 AM)
Average temperature yesterday: 67 °F

Past Weeks' High & Low Weather Summary

 TemperatureHumidityPressure
High88 °F (Sep 7, 1:30 PM)100% (Sep 13, 1:00 AM)30.04 "Hg (Sep 13, 1:00 AM)
Low64 °F (Sep 19, 8:30 AM)45% (Sep 11, 12:30 PM)29.71 "Hg (Sep 8, 4:30 PM)
Average77 °F75%29.87 "Hg
* Reported Sep 5 9:00 PM — Sep 20 9:00 PM, Suzhou, Weather by CustomWeather, © 2014

Note: Actual official high and low records may vary slightly from our data, if they occured in-between our weather recording intervals... More about our weather records

Advertising

Suzhou weather history for previous 24 hours

 ConditionsComfort  
Time TempWeatherWind HumidityBarometerVisibility
9:00 PM
Sep 20
73 °FPassing clouds.6 mph78%29.89 "HgN/A
8:30 PM73 °FPassing clouds.6 mph78%29.89 "HgN/A
8:00 PM73 °FPassing clouds.6 mph78%29.89 "HgN/A
7:30 PM73 °FPassing clouds.8 mph78%29.89 "HgN/A
7:00 PM73 °FPassing clouds.6 mph78%29.86 "HgN/A
6:30 PM73 °FPassing clouds.8 mph78%29.86 "HgN/A
6:00 PM73 °FPassing clouds.8 mph78%29.86 "HgN/A
5:30 PM75 °FScattered clouds.10 mph74%29.86 "HgN/A
5:00 PM75 °FScattered clouds.10 mph74%29.83 "HgN/A
4:30 PM77 °FPartly sunny.10 mph69%29.83 "HgN/A
4:00 PM77 °FPartly sunny.10 mph69%29.83 "HgN/A
3:30 PM79 °FPartly sunny.10 mph65%29.83 "HgN/A
3:00 PM77 °FPassing clouds.8 mph69%29.83 "HgN/A
2:30 PM77 °FScattered clouds.10 mph69%29.83 "HgN/A
2:00 PM79 °FScattered clouds.13 mph65%29.83 "HgN/A
1:30 PM79 °FPartly sunny.6 mph58%29.83 "HgN/A
1:00 PM79 °FPartly sunny.6 mph70%29.83 "HgN/A
12:30 PM79 °FPartly sunny.8 mph70%29.83 "HgN/A
12:00 PM79 °FPartly sunny.6 mph65%29.86 "HgN/A
11:30 AM79 °FPartly sunny.8 mph70%29.86 "HgN/A
11:00 AM77 °FPartly sunny.8 mph74%29.86 "HgN/A
10:30 AM77 °FPartly sunny.8 mph74%29.89 "HgN/A
10:00 AM75 °FPartly sunny.8 mph78%29.89 "HgN/A
9:00 AM73 °FFog.10 mph83%29.89 "Hg3 mi
8:30 AM72 °FFog.10 mph83%29.89 "Hg2 mi
8:00 AM70 °FFog.8 mph88%29.89 "Hg1 mi
7:30 AM70 °FFog.6 mph88%29.89 "Hg1 mi
7:00 AM68 °FFog.6 mph94%29.86 "Hg1 mi
6:30 AM64 °FFog.3 mph100%29.86 "Hg1 mi
6:00 AM64 °FFog.3 mph100%29.86 "Hg1 mi
5:30 AM64 °FFog.3 mph100%29.86 "Hg1 mi
5:00 AM66 °FFog.6 mph94%29.83 "Hg1 mi
4:30 AM66 °FFog.6 mph94%29.83 "Hg2 mi
4:00 AM66 °FFog.8 mph94%29.83 "Hg2 mi
3:30 AM66 °FFog.8 mph94%29.83 "Hg2 mi
3:00 AM66 °FFog.6 mph94%29.86 "Hg2 mi
2:30 AM66 °FFog.6 mph94%29.86 "Hg2 mi
2:00 AM66 °FFog.3 mph94%29.86 "Hg2 mi
1:30 AM66 °FFog.3 mph94%29.86 "Hg2 mi
1:00 AM66 °FFog.3 mph94%29.86 "Hg2 mi
12:30 AM66 °FFog.3 mph94%29.89 "Hg2 mi
12:00 AM66 °FFog.1 mph94%29.89 "Hg3 mi
11:30 PM
Sep 19
66 °FFog.3 mph94%29.89 "Hg3 mi
11:00 PM66 °FFog.3 mph94%29.89 "Hg3 mi
10:30 PM68 °FFog.3 mph88%29.89 "Hg3 mi
10:00 PM66 °FFog.3 mph94%29.92 "Hg3 mi
Weather by CustomWeather, © 2014

See weather overviewHow to use our weather pages